User: anonymous   Login
Location: Ferma
(41.9500°N, 44.5167°E)
Time: 17:57:10
(UTC+00:00)
Language:

Cosmos 407 Rocket - Orbit

View from above orbital plane
View from above orbital plane
View from above satellite
View from above satellite

Ground track
Ground track

The orbit data is extracted from the following two-line orbital elements,

1  5175U 71035B   22025.19147767  .00000031  00000-0  18911-4 0  9995
2  5175  74.0498 352.0192 0029257 146.0896 214.2137 14.38072939656859
Epoch (UTC): 25 January 2022 04:35:43
Eccentricity: 0.0029257
inclination: 74.0498°
perigee height: 744 km
apogee height: 786 km
right ascension of ascending node: 352.0192°
argument of perigee: 146.0896°
revolutions per day: 14.38072939
mean anomaly at epoch: 214.2137°
orbit number at epoch: 65685

The dashed part of the orbit path shows where the satellite is in the earth's shadow,  

DLR